FW5670 Weather Reports


time (UTC)temp
C
wind
direction
speed
KPH
gust
KPH
rain 1hr
cm
rain 24hr
cm
rain mn
cm
humidity
%
barometer
mb
20260506081546 16 76 0.0 1.6 0.00 0.20 0.00 78 1009.0
20260506073050 17 76 1.6 3.2 0.00 0.20 0.00 74 1008.9
20260506071554 17 82 0.0 4.8 0.00 0.20 0.00 73 1009.1
20260506070109 17 0 0.0 3.2 0.00 0.20 0.00 72 1009.2
20260506061545 18 86 0.0 3.2 0.00 0.20 0.00 70 1009.1
20260506044554 19 66 1.6 4.8 0.00 0.20 0.00 65 1009.9
20260506043045 19 0 0.0 6.4 0.00 0.20 0.00 64 1009.8
20260506041550 19 82 1.6 8.0 0.00 0.20 0.00 64 1009.8
20260506040048 19 42 0.0 4.8 0.00 0.20 0.00 63 1009.7
20260506034549 20 59 1.6 6.4 0.00 0.20 0.20 62 1009.7
20260506033051 20 65 1.6 11.3 0.00 0.20 0.20 60 1009.5
20260506031558 20 104 1.6 8.0 0.00 0.20 0.20 59 1009.5
20260506030105 21 88 1.6 9.7 0.00 0.20 0.20 56 1009.4
20260506024614 21 88 1.6 6.4 0.00 0.20 0.20 54 1009.4
20260506023046 21 0 1.6 11.3 0.00 0.20 0.20 51 1009.5
20260506021543 22 53 1.6 9.7 0.00 0.20 0.20 50 1009.4
20260506020044 22 61 1.6 8.0 0.00 0.20 0.20 49 1009.2
20260506014558 22 9 3.2 8.0 0.00 0.20 0.20 47 1009.3
20260506013049 22 72 3.2 6.4 0.00 0.20 0.20 46 1008.8
20260506011554 22 53 3.2 6.4 0.00 0.20 0.20 45 1008.6
20260506010054 23 67 1.6 16.1 0.00 0.20 0.20 43 1008.5
20260506004623 23 30 3.2 12.9 0.00 0.20 0.20 42 1008.3
20260506003048 23 66 1.6 14.5 0.00 0.20 0.20 41 1008.3
20260506001546 23 81 0.0 4.8 0.00 0.20 0.20 41 1007.9
20260506000051 23 82 3.2 9.7 0.00 0.20 0.20 39 1007.9
20260505234610 23 116 0.0 3.2 0.00 0.20 0.20 39 1007.7
20260505233041 24 91 3.2 8.0 0.00 0.20 0.20 38 1007.6
20260505231541 24 69 1.6 8.0 0.00 0.20 0.20 37 1007.2
20260505230052 24 99 1.6 8.0 0.00 0.20 0.20 36 1007.1
20260505224549 25 106 3.2 6.4 0.00 0.20 0.20 36 1007.1
20260505223059 25 126 1.6 6.4 0.00 0.20 0.20 35 1007.0
20260505221559 25 102 1.6 12.9 0.00 0.20 0.20 34 1006.9
20260505220115 25 105 3.2 9.7 0.00 0.20 0.20 35 1006.9
20260505214559 26 111 3.2 16.1 0.00 0.20 0.20 36 1006.8
20260505213046 26 90 1.6 6.4 0.00 0.20 0.20 37 1006.6
20260505211543 26 37 4.8 14.5 0.00 0.20 0.20 36 1006.6
20260505210043 26 112 4.8 24.1 0.00 0.20 0.20 35 1006.5
20260505204550 26 41 3.2 19.3 0.00 0.20 0.20 35 1006.5
20260505203052 26 59 6.4 24.1 0.00 0.20 0.20 36 1006.6
20260505201607 26 101 1.6 14.5 0.00 0.20 0.20 35 1006.7
20260505200100 27 119 1.6 12.9 0.00 0.20 0.20 37 1006.7
20260505194602 27 87 3.2 16.1 0.00 0.20 0.20 35 1006.7
20260505193049 27 116 3.2 20.9 0.00 0.20 0.20 35 1006.8
20260505191554 27 78 4.8 14.5 0.00 0.20 0.20 37 1007.0
20260505190054 27 77 3.2 17.7 0.00 0.20 0.20 39 1007.2
20260505184542 27 57 1.6 11.3 0.00 0.20 0.20 39 1007.4
20260505183055 27 43 3.2 16.1 0.00 0.20 0.20 38 1007.7
20260505181550 27 69 3.2 14.5 0.00 0.20 0.20 38 1007.8
20260505180050 28 48 4.8 8.0 0.00 0.20 0.20 39 1008.0
20260505174552 27 73 3.2 9.7 0.00 0.20 0.20 41 1008.0
20260505173053 27 105 6.4 17.7 0.00 0.20 0.20 41 1008.3
20260505171551 27 33 3.2 8.0 0.00 0.20 0.20 43 1008.3
20260505170053 27 336 4.8 8.0 0.00 0.20 0.20 45 1008.5
20260505164600 27 46 1.6 11.3 0.00 0.20 0.20 49 1008.8
20260505163049 26 124 3.2 8.0 0.00 0.20 0.20 46 1009.0
20260505161558 26 51 3.2 9.7 0.00 0.20 0.20 46 1009.3
20260505153054 25 59 1.6 9.7 0.00 0.20 0.20 50 1009.8
20260505151550 24 13 3.2 8.0 0.00 0.20 0.20 54 1009.8
20260505124558 15 0 0.0 1.6 0.00 0.18 0.18 89 1009.9
20260505123050 13 0 0.0 1.6 0.13 0.18 0.18 90 1010.1
20260505121550 12 0 0.0 1.6 0.18 0.18 0.18 90 1010.2
20260505120053 12 0 0.0 0.0 0.18 0.18 0.18 89 1010.1
20260505114550 12 0 0.0 4.8 0.18 0.18 0.18 88 1009.8
20260505113045 12 0 0.0 0.0 0.03 0.03 0.03 84 1010.5
20260505111548 12 0 0.0 0.0 0.00 0.00 0.00 82 1010.4
20260505101545 11 0 0.0 0.0 0.00 0.00 0.00 82 1009.9
20260505100048 11 0 0.0 0.0 0.00 0.00 0.00 81 1009.7
20260505094549 11 0 0.0 0.0 0.00 0.00 0.00 81 1009.7
20260505093048 11 0 0.0 0.0 0.00 0.00 0.00 80 1009.3
20260505091601 11 0 0.0 0.0 0.00 0.00 0.00 79 1009.3
20260505090050 11 0 0.0 0.0 0.00 0.00 0.00 79 1009.1
20260505084550 11 0 0.0 0.0 0.00 0.00 0.00 79 1009.2
20260505083049 11 0 0.0 0.0 0.00 0.00 0.00 78 1009.2